Location: ????????
(55.5667°N, 37.5833°E)
Time: 21:52:03
(UTC+00:00)

Cosmos 1447 Rocket - Pass Details

Date: 14 April 2026
Orbit: 953 x 995 km, 82.9° (Epoch: 11 May)

Event Time Altitude Azimuth Distance (km) Brightness Sun altitude
Rises 19:40:59 0° 348° (NNW) 3,716 8.9 -21.0°
Reaches altitude 10° 19:43:32 10° 350° (N) 2,758 7.9 -21.1°
Maximum altitude 19:49:53 78° 78° (ENE) 1,006 4.5 -21.5°
Enters shadow 19:52:11 42° 157° (SSE) 1,368 4.8 -21.7°
